Cody, WY

4:01 AM MDT on July 30, 2016 (GMT -0600)
Yellowstone Regional

Weather History for KCOD - July, 2013

Change the Weather History Date:

Monday, July 15, 2013

  Actual Average Record
Temperature  
Mean Temperature 76 °F -  
Max Temperature 91 °F 86 °F 105 °F (1951)
Min Temperature 62 °F 53 °F 43 °F (1944)
Cooling Degree Days 12    
Growing Degree Days 26 (Base 50)    
Moisture  
Dew Point 43 °F    
Average Humidity 34    
Maximum Humidity 59    
Minimum Humidity 13    
Precipitation  
Precipitation 0.00 in - - ()
Sea Level Pressure  
Sea Level Pressure 30.07 in    
Wind  
Wind Speed 5 mph (WNW)    
Max Wind Speed 13 mph    
Max Gust Speed 20 mph    
Visibility 10 miles    
Events      
Averages and records for this station are not official NWS values.
T = Trace of Precipitation, MM = Missing Value Source: NWS Daily Summary

Daily Weather History Graph

Daily Weather History Graph

Search for Another Location

Airport or City:

Trip Planner

Search our weather history database for the weather conditions in past years. The results will help you decide how hot, cold, wet, or windy it might be!

Date:

Astronomy

Jul. 15, 2013 Rise Set
Actual Time 5:45 AM MDT 8:58 PM MDT
Civil Twilight 5:10 AM MDT 9:33 PM MDT
Nautical Twilight 4:24 AM MDT 10:18 PM MDT
Astronomical Twilight 3:28 AM MDT 11:14 PM MDT
Moon 1:28 PM MDT (7/15) No Moon Set
Length of Visible Light 16h 23m
Length of Day
15h 12m
Waxing Crescent, 46% of the Moon is Illuminated
Jul 15
Waxing Crescent
Jul 15
First Quarter
Jul 22
Full
Jul 29
Last Quarter
Aug 6
New

Hourly Weather History & Observations

Time (MDT) Temp. Dew Point Humidity Pressure Visibility Wind Dir Wind Speed Gust Speed Precip Events Conditions
12:15 AM 66.2 °F 48.2 °F 52% 30.15 in 10.0 mi Calm Calm - N/A   Clear
12:55 AM 64.4 °F 48.2 °F 56% 30.15 in 10.0 mi SSW 4.6 mph - N/A   Partly Cloudy
1:15 AM 64.4 °F 48.2 °F 56% 30.14 in 10.0 mi South 3.5 mph - N/A   Clear
1:55 AM 66.2 °F 48.2 °F 52% 30.14 in 10.0 mi South 3.5 mph - N/A   Clear
2:15 AM 64.4 °F 46.4 °F 52% 30.14 in 10.0 mi Calm Calm - N/A   Clear
2:35 AM 62.6 °F 46.4 °F 55% 30.13 in 10.0 mi South 5.8 mph - N/A   Clear
2:55 AM 64.4 °F 46.4 °F 52% 30.13 in 10.0 mi SSW 6.9 mph - N/A   Clear
3:15 AM 64.4 °F 46.4 °F 52% 30.14 in 10.0 mi Calm Calm - N/A   Clear
3:35 AM 62.6 °F 46.4 °F 55% 30.13 in 10.0 mi WSW 3.5 mph - N/A   Mostly Cloudy
3:55 AM 66.2 °F 44.6 °F 46% 30.13 in 10.0 mi WSW 4.6 mph - N/A   Mostly Cloudy
4:35 AM 62.6 °F 46.4 °F 55% 30.13 in 10.0 mi Calm Calm - N/A   Mostly Cloudy
4:55 AM 64.4 °F 44.6 °F 49% 30.12 in 10.0 mi South 3.5 mph - N/A   Mostly Cloudy
5:15 AM 62.6 °F 44.6 °F 52% 30.12 in 10.0 mi SSW 8.1 mph - N/A   Mostly Cloudy
5:35 AM 62.6 °F 46.4 °F 55% 30.11 in 10.0 mi SW 5.8 mph - N/A   Partly Cloudy
5:55 AM 62.6 °F 44.6 °F 52% 30.11 in 10.0 mi Calm Calm - N/A   Clear
6:15 AM 62.6 °F 44.6 °F 52% 30.11 in 10.0 mi SSE 4.6 mph - N/A   Clear
6:35 AM 64.4 °F 42.8 °F 45% 30.11 in 10.0 mi South 5.8 mph - N/A   Clear
6:55 AM 62.6 °F 46.4 °F 55% 30.11 in 10.0 mi SW 4.6 mph - N/A   Clear
7:15 AM 66.2 °F 46.4 °F 49% 30.11 in 10.0 mi SW 5.8 mph - N/A   Clear
7:35 AM 62.6 °F 48.2 °F 59% 30.11 in 10.0 mi NNE 3.5 mph - N/A   Clear
7:55 AM 66.2 °F 48.2 °F 52% 30.12 in 10.0 mi ENE 3.5 mph - N/A   Clear
8:15 AM 71.6 °F 46.4 °F 41% 30.11 in 10.0 mi Calm Calm - N/A   Clear
8:35 AM 73.4 °F 50.0 °F 44% 30.11 in 10.0 mi Calm Calm - N/A   Clear
8:55 AM 75.2 °F 50.0 °F 41% 30.11 in 10.0 mi Calm Calm - N/A   Clear
9:15 AM 75.2 °F 48.2 °F 38% 30.11 in 10.0 mi Calm Calm - N/A   Clear
9:35 AM 78.8 °F 50.0 °F 36% 30.10 in 10.0 mi Calm Calm - N/A   Clear
9:55 AM 80.6 °F 51.8 °F 37% 30.09 in 10.0 mi WSW 6.9 mph - N/A   Clear
10:15 AM 82.4 °F 44.6 °F 26% 30.09 in 10.0 mi SW 9.2 mph - N/A   Clear
10:36 AM 84.2 °F 42.8 °F 23% 30.09 in 10.0 mi SSW 6.9 mph - N/A   Clear
10:55 AM 86.0 °F 42.8 °F 22% 30.08 in 9.0 mi SSW 12.7 mph - N/A   Clear
11:15 AM 87.8 °F 39.2 °F 18% 30.08 in 10.0 mi South 10.4 mph 18.4 mph N/A   Clear
11:35 AM 87.8 °F 39.2 °F 18% 30.07 in 10.0 mi South 4.6 mph - N/A   Clear
11:55 AM 87.8 °F 42.8 °F 21% 30.07 in 10.0 mi North 9.2 mph 19.6 mph N/A   Clear
12:15 PM 87.8 °F 39.2 °F 18% 30.06 in 10.0 mi NNW 6.9 mph - N/A   Clear
12:35 PM 87.8 °F 42.8 °F 21% 30.06 in 10.0 mi WNW 10.4 mph 17.3 mph N/A   Scattered Clouds
12:55 PM 84.2 °F 42.8 °F 23% 30.06 in 10.0 mi NNW 5.8 mph - N/A   Partly Cloudy
1:15 PM 87.8 °F 37.4 °F 17% 30.05 in 10.0 mi NE 5.8 mph - N/A   Partly Cloudy
1:35 PM 89.6 °F 37.4 °F 16% 30.04 in 10.0 mi North 11.5 mph - N/A   Partly Cloudy
1:55 PM 87.8 °F 41.0 °F 19% 30.04 in 10.0 mi NNE 10.4 mph - N/A   Clear
2:35 PM 89.6 °F 35.6 °F 15% 30.03 in 8.0 mi NNE 10.4 mph - N/A   Clear
3:15 PM 91.4 °F 37.4 °F 15% 30.02 in 10.0 mi NE 8.1 mph - N/A   Clear
3:35 PM 91.4 °F 33.8 °F 13% 30.01 in 10.0 mi ESE 12.7 mph 16.1 mph N/A   Clear
3:55 PM 89.6 °F 42.8 °F 20% 30.01 in 10.0 mi NNE 12.7 mph 16.1 mph N/A   Clear
4:15 PM 89.6 °F 42.8 °F 20% 30.01 in 10.0 mi NNE 10.4 mph - N/A   Clear
4:35 PM 89.6 °F 42.8 °F 20% 30.00 in 10.0 mi ENE 9.2 mph - N/A   Clear
4:55 PM 91.4 °F 39.2 °F 16% 29.99 in 10.0 mi ENE 11.5 mph 17.3 mph N/A   Clear
5:15 PM 87.8 °F 42.8 °F 21% 29.99 in 10.0 mi North 10.4 mph - N/A   Clear
5:35 PM 87.8 °F 44.6 °F 22% 29.99 in 10.0 mi NNE 10.4 mph - N/A   Clear
5:55 PM 86.0 °F 42.8 °F 22% 29.99 in 10.0 mi NNE 8.1 mph - N/A   Clear
6:35 PM 84.2 °F 44.6 °F 25% 29.98 in 10.0 mi North 9.2 mph - N/A   Clear
7:15 PM 84.2 °F 42.8 °F 23% 29.98 in 10.0 mi NE 6.9 mph - N/A   Clear
7:35 PM 84.2 °F 46.4 °F 27% 29.98 in 10.0 mi NNE 6.9 mph - N/A   Clear
7:55 PM 82.4 °F 44.6 °F 26% 29.98 in 10.0 mi North 4.6 mph - N/A   Clear
8:35 PM 82.4 °F 39.2 °F 21% 29.99 in 10.0 mi ENE 4.6 mph - N/A   Clear
8:55 PM 80.6 °F 37.4 °F 21% 30.00 in 10.0 mi Calm Calm - N/A   Clear
9:15 PM 78.8 °F 41.0 °F 26% 30.01 in 10.0 mi South 4.6 mph - N/A   Clear
9:35 PM 73.4 °F 44.6 °F 36% 30.02 in 10.0 mi Calm Calm - N/A   Clear
9:55 PM 75.2 °F 41.0 °F 29% 30.02 in 10.0 mi West 5.8 mph - N/A   Clear
10:15 PM 75.2 °F 39.2 °F 27% 30.03 in 10.0 mi West 4.6 mph - N/A   Clear
10:35 PM 75.2 °F 39.2 °F 27% 30.04 in 10.0 mi WNW 6.9 mph - N/A   Clear
10:55 PM 75.2 °F 39.2 °F 27% 30.04 in 10.0 mi WNW 5.8 mph - N/A   Clear
11:15 PM 75.2 °F 37.4 °F 25% 30.04 in 10.0 mi WNW 3.5 mph - N/A   Clear
11:35 PM 75.2 °F 37.4 °F 25% 30.04 in 10.0 mi Calm Calm - N/A   Clear
11:55 PM 73.4 °F 37.4 °F 27% 30.05 in 10.0 mi West 3.5 mph - N/A   Clear